TimeEDT,TemperatureF,Dew PointF,Humidity,Sea Level PressureIn,VisibilityMPH,Wind Direction,Wind SpeedMPH,Gust SpeedMPH,PrecipitationIn,Events,Conditions,WindDirDegrees,DateUTC
12:10 AM,59.0,57.2,94,30.21,10.0,ENE,3.5,-,N/A,,Overcast,70,2013-05-19 04:10:00
12:30 AM,59.0,57.2,94,30.20,10.0,East,4.6,-,N/A,,Overcast,100,2013-05-19 04:30:00
12:50 AM,59.0,57.2,94,30.20,10.0,ENE,4.6,-,N/A,,Overcast,70,2013-05-19 04:50:00
1:10 AM,59.0,57.2,94,30.18,10.0,East,4.6,-,N/A,,Overcast,80,2013-05-19 05:10:00
1:30 AM,59.0,57.2,94,30.18,10.0,East,4.6,-,N/A,,Overcast,90,2013-05-19 05:30:00
1:50 AM,60.8,59.0,94,30.18,10.0,East,4.6,-,N/A,,Overcast,100,2013-05-19 05:50:00
2:10 AM,60.8,59.0,94,30.18,10.0,East,5.8,-,N/A,,Overcast,90,2013-05-19 06:10:00
2:30 AM,60.8,59.0,94,30.18,10.0,East,4.6,-,N/A,,Overcast,90,2013-05-19 06:30:00
2:50 AM,60.8,59.0,94,30.17,10.0,East,5.8,-,N/A,,Overcast,100,2013-05-19 06:50:00
3:10 AM,60.8,59.0,94,30.17,10.0,ESE,6.9,-,N/A,,Overcast,110,2013-05-19 07:10:00
3:30 AM,60.8,59.0,94,30.17,10.0,ESE,8.1,-,N/A,,Overcast,120,2013-05-19 07:30:00
4:10 AM,60.8,59.0,94,30.17,7.0,ESE,5.8,-,N/A,,Overcast,110,2013-05-19 08:10:00
4:30 AM,60.8,59.0,94,30.16,7.0,SE,5.8,-,N/A,,Overcast,130,2013-05-19 08:30:00
4:50 AM,60.8,59.0,94,30.16,10.0,ESE,6.9,-,N/A,,Overcast,110,2013-05-19 08:50:00
5:10 AM,60.8,59.0,94,30.16,7.0,SE,6.9,-,N/A,,Overcast,130,2013-05-19 09:10:00
5:30 AM,60.8,59.0,94,30.16,5.0,ESE,6.9,-,N/A,,Overcast,110,2013-05-19 09:30:00
5:50 AM,60.8,59.0,94,30.16,7.0,ESE,6.9,-,N/A,,Overcast,120,2013-05-19 09:50:00
6:10 AM,60.8,59.0,94,30.16,7.0,ESE,9.2,-,N/A,,Overcast,110,2013-05-19 10:10:00
6:31 AM,60.8,59.0,94,30.15,7.0,ESE,8.1,-,N/A,,Overcast,110,2013-05-19 10:31:00
6:51 AM,62.6,60.8,94,30.16,7.0,ESE,6.9,-,N/A,,Overcast,110,2013-05-19 10:51:00
7:11 AM,62.6,59.0,88,30.17,7.0,SE,5.8,-,N/A,,Overcast,130,2013-05-19 11:11:00
7:31 AM,62.6,59.0,88,30.17,7.0,ESE,6.9,-,N/A,,Overcast,120,2013-05-19 11:31:00
7:51 AM,62.6,59.0,88,30.18,5.0,SE,4.6,-,N/A,,Overcast,140,2013-05-19 11:51:00
8:31 AM,62.6,59.0,88,30.19,7.0,SE,5.8,-,N/A,,Overcast,130,2013-05-19 12:31:00
8:51 AM,62.6,60.8,94,30.20,7.0,SE,4.6,-,N/A,,Overcast,130,2013-05-19 12:51:00
9:11 AM,62.6,60.8,94,30.20,5.0,SE,5.8,-,N/A,,Overcast,140,2013-05-19 13:11:00
9:31 AM,62.6,60.8,94,30.20,5.0,SE,4.6,-,N/A,,Overcast,130,2013-05-19 13:31:00
9:51 AM,62.6,60.8,94,30.20,7.0,SE,3.5,-,N/A,,Overcast,130,2013-05-19 13:51:00
10:11 AM,64.4,60.8,88,30.19,7.0,ENE,3.5,-,N/A,,Overcast,70,2013-05-19 14:11:00
10:31 AM,64.4,60.8,88,30.19,7.0,East,3.5,-,N/A,,Overcast,100,2013-05-19 14:31:00
10:51 AM,68.0,62.6,83,30.20,7.0,ESE,5.8,-,N/A,,Overcast,110,2013-05-19 14:51:00
11:11 AM,68.0,62.6,83,30.19,7.0,East,3.5,-,N/A,,Overcast,100,2013-05-19 15:11:00
11:31 AM,69.8,64.4,83,30.19,7.0,ESE,3.5,-,N/A,,Overcast,120,2013-05-19 15:31:00
11:51 AM,69.8,62.6,78,30.18,7.0,SE,3.5,-,N/A,,Overcast,130,2013-05-19 15:51:00
12:11 PM,69.8,62.6,78,30.18,7.0,ESE,4.6,-,N/A,,Overcast,120,2013-05-19 16:11:00
12:51 PM,71.6,64.4,78,30.17,10.0,Calm,Calm,-,N/A,,Mostly Cloudy,0,2013-05-19 16:51:00
1:11 PM,71.6,62.6,73,30.16,10.0,Calm,Calm,-,N/A,,Mostly Cloudy,0,2013-05-19 17:11:00
1:31 PM,71.6,62.6,73,30.16,10.0,WSW,5.8,-,N/A,,Overcast,240,2013-05-19 17:31:00
1:51 PM,73.4,64.4,73,30.15,10.0,SSW,3.5,-,N/A,,Mostly Cloudy,210,2013-05-19 17:51:00
2:11 PM,73.4,64.4,73,30.14,10.0,SSE,4.6,-,N/A,,Mostly Cloudy,160,2013-05-19 18:11:00
2:31 PM,73.4,62.6,69,30.13,10.0,SE,5.8,-,N/A,,Scattered Clouds,130,2013-05-19 18:31:00
3:12 PM,73.4,62.6,69,30.12,10.0,South,3.5,-,N/A,,Scattered Clouds,180,2013-05-19 19:12:00
3:32 PM,73.4,62.6,69,30.12,10.0,SSE,6.9,-,N/A,,Scattered Clouds,160,2013-05-19 19:32:00
4:12 PM,73.4,62.6,69,30.12,10.0,SSE,5.8,-,N/A,,Mostly Cloudy,160,2013-05-19 20:12:00
4:32 PM,77.0,62.6,61,30.11,10.0,Calm,Calm,-,N/A,,Scattered Clouds,0,2013-05-19 20:32:00
4:52 PM,77.0,62.6,61,30.11,10.0,SSE,4.6,-,N/A,,Scattered Clouds,160,2013-05-19 20:52:00
5:12 PM,73.4,60.8,65,30.11,10.0,South,4.6,-,N/A,,Scattered Clouds,180,2013-05-19 21:12:00
5:32 PM,73.4,62.6,69,30.11,10.0,South,3.5,-,N/A,,Clear,170,2013-05-19 21:32:00
5:52 PM,75.2,62.6,65,30.10,10.0,South,5.8,-,N/A,,Clear,180,2013-05-19 21:52:00
6:12 PM,73.4,60.8,65,30.10,10.0,SSW,4.6,-,N/A,,Clear,200,2013-05-19 22:12:00
6:32 PM,73.4,62.6,69,30.10,10.0,South,4.6,-,N/A,,Clear,190,2013-05-19 22:32:00
6:52 PM,73.4,62.6,69,30.11,10.0,South,9.2,-,N/A,,Clear,170,2013-05-19 22:52:00
7:12 PM,73.4,62.6,69,30.11,10.0,SSE,4.6,-,N/A,,Scattered Clouds,160,2013-05-19 23:12:00
7:32 PM,71.6,62.6,73,30.11,10.0,SSE,4.6,-,N/A,,Scattered Clouds,160,2013-05-19 23:32:00
7:52 PM,71.6,64.4,78,30.11,10.0,SSE,3.5,-,N/A,,Clear,160,2013-05-19 23:52:00
8:12 PM,69.8,62.6,78,30.11,10.0,Calm,Calm,-,N/A,,Clear,0,2013-05-20 00:12:00
8:32 PM,69.8,64.4,83,30.11,10.0,SSE,3.5,-,N/A,,Scattered Clouds,160,2013-05-20 00:32:00
8:52 PM,69.8,62.6,78,30.12,10.0,SSE,3.5,-,N/A,,Scattered Clouds,160,2013-05-20 00:52:00
9:12 PM,69.8,64.4,83,30.12,10.0,SSE,4.6,-,N/A,,Scattered Clouds,160,2013-05-20 01:12:00
9:32 PM,69.8,64.4,83,30.12,10.0,SSE,5.8,-,N/A,,Clear,160,2013-05-20 01:32:00
9:52 PM,69.8,64.4,83,30.14,10.0,SSE,6.9,-,N/A,,Scattered Clouds,160,2013-05-20 01:52:00
10:12 PM,69.8,62.6,78,30.15,10.0,SSE,5.8,-,N/A,,Mostly Cloudy,160,2013-05-20 02:12:00
10:32 PM,69.8,64.4,83,30.15,10.0,SE,5.8,-,N/A,,Mostly Cloudy,140,2013-05-20 02:32:00
10:52 PM,69.8,64.4,83,30.15,10.0,SE,5.8,-,N/A,,Scattered Clouds,140,2013-05-20 02:52:00
11:12 PM,69.8,64.4,83,30.15,10.0,SSE,5.8,-,N/A,,Scattered Clouds,150,2013-05-20 03:12:00
11:33 PM,69.8,64.4,83,30.14,10.0,SE,5.8,-,N/A,,Mostly Cloudy,140,2013-05-20 03:33:00